[[{"header":{"parameterUnit":"m.s-1","parameterCategory":1,"la1":30.2991,"la2":30.254,"lo1":-89.0895,"lo2":-89.0444,"dy":0.0017,"dx":0.0017,"nx":28,"ny":28,"refTime":"2023-07-28T03:00:00:Z","depth":0,"parameterNumber":2,"parameterNumberName":"U-component_of_WINDS"},"data":[0,0,0,0,0,0,0,0,0,0,0,0,0,0,0,0,0,0,0,0,0,0,0,0,0,0,0,0,0,0,0,0,0,0,0,0,0,0,0,0,0,0,0,0,0,0,0,0,0,0,0,0,0,0,0,0,0,0,1.3599,1.3599,0,1.3594,1.3593,1.3593,1.3545,1.3544,1.3543,1.3541,1.3535,1.3536,1.3537,0,0,0,0,0,0,0,0,0,0,0,0,0,1.3567,1.3568,1.36,1.3599,1.3599,1.3594,1.3593,1.3593,1.3545,1.3544,1.3542,1.3541,1.3535,1.3536,1.3537,0,0,0,0,0,0,0,0,0,0,0,0,0,1.3573,1.3568,1.36,1.3575,1.3572,1.3594,1.3593,1.3593,1.3546,1.3544,1.3542,1.354,1.3534,1.3536,1.3537,1.3582,0,0,1.3542,1.3542,0,0,0,0,0,0,0,0,1.3573,1.3574,1.3578,1.3576,1.3574,1.3568,1.358,1.359,1.3546,1.3556,1.3541,1.3539,1.3548,1.3548,1.3551,1.3582,1.3581,1.3542,1.3543,1.3543,1.3544,0,0,0,0,0,0,0,1.3572,1.3574,1.3597,1.3578,1.3576,1.3563,1.3562,1.3581,1.3562,1.3555,1.3551,1.3551,1.3546,1.3549,1.355,1.3581,1.3542,1.3543,1.3544,1.3544,1.3645,1.3646,0,0,0,0,0,0,1.3576,1.3574,1.3597,1.3597,1.3569,1.3565,1.3564,1.3572,1.3561,1.3558,1.3553,1.3549,1.3548,1.3548,1.355,1.3598,1.3543,1.3544,1.3545,1.3643,1.3645,1.3647,0,0,0,0,0,0,1.3575,1.3578,1.3598,1.3585,1.3586,1.3568,1.3577,1.3573,1.3576,1.356,1.3556,1.356,1.3546,1.3548,1.3573,1.3597,1.3545,1.3546,1.3641,1.3643,1.3646,1.3698,0,0,0,0,0,0,1.3574,1.3578,1.3596,1.3585,1.3587,1.3622,1.3578,1.3574,1.3578,1.3574,1.3566,1.3562,1.3545,1.3571,1.3575,1.3598,1.3547,1.3638,1.3642,1.3645,1.3694,1.3702,1.3709,0,0,0,0,0,1.3573,1.3611,1.3597,1.36,1.3608,1.3624,1.3624,1.3604,1.3581,1.3597,1.3587,1.3563,1.3595,1.3575,1.3578,1.3602,1.3637,1.3641,1.3645,1.369,1.37,1.3709,0,0,0,0,0,0,1.3626,1.361,1.3593,1.3629,1.3628,1.3615,1.3636,1.3616,1.3621,1.3616,1.359,1.3589,1.3618,1.3613,1.3591,1.3643,1.3611,1.3616,1.3645,1.3654,1.3662,1.3661,1.3549,0,0,0,0,0,1.3641,1.3655,1.3641,1.3673,1.3674,1.3655,1.3661,1.3645,1.3643,1.3642,1.3633,1.3632,1.3641,1.3648,1.3656,1.3693,1.3689,1.3712,1.3719,1.3726,1.3729,1.3746,1.3754,1.366,1.366,1.366,0,0,1.3674,1.3667,1.3677,1.3684,1.3681,1.3695,1.3655,1.3672,1.3682,1.3645,1.3667,1.3661,1.3657,1.3688,1.3702,1.3685,1.3755,1.3731,1.3736,1.3736,1.3751,1.376,1.3768,1.3663,1.3663,1.3662,0,0,1.3739,1.3737,1.3762,1.376,1.3755,1.3742,1.3749,1.3739,1.3733,1.3755,1.3727,1.3738,1.3755,1.3753,1.3754,1.3816,1.3793,1.382,1.3858,1.3874,1.3882,1.3888,1.3907,1.3915,1.3824,1.3824,1.3824,0,1.378,1.38,1.3778,1.3796,1.3798,1.3765,1.3789,1.3788,1.3787,1.3789,1.3771,1.379,1.3786,1.3814,1.3829,1.3832,1.3836,1.3819,1.3883,1.3889,1.3894,1.3912,1.392,1.3827,1.3827,1.3826,1.3826,0,1.3849,1.3863,1.3884,1.3882,1.3887,1.3909,1.3888,1.3896,1.388,1.3868,1.389,1.3883,1.3888,1.3894,1.3879,1.3919,1.3909,1.3887,1.3854,1.3907,1.3923,1.393,1.3831,1.383,1.3829,1.3829,0,0,1.3947,1.3931,1.3939,1.3936,1.3929,1.3939,1.3958,1.3962,1.3967,1.3968,1.3981,1.3996,1.3975,1.3976,1.396,1.3975,1.4021,1.3951,1.395,1.3962,1.4062,1.4076,1.4084,1.4006,1.4008,1.4009,1.4061,0,1.4007,1.4038,1.4018,1.4052,1.4063,1.403,1.4046,1.4043,1.4032,1.404,1.4028,1.4038,1.4011,1.4011,1.4024,1.4012,1.404,1.4009,1.4017,1.4017,1.4016,1.4094,1.4109,1.4159,1.4068,1.4069,1.4069,0,1.4082,1.4083,1.4118,1.4105,1.4109,1.4124,1.4124,1.4133,1.4127,1.4118,1.4119,1.4098,1.4114,1.4084,1.4104,1.4083,1.4085,1.408,1.4081,1.4079,1.4045,1.4091,1.4175,1.4181,1.408,1.4079,1.4078,0,1.4146,1.4157,1.4179,1.4178,1.4164,1.4175,1.417,1.4162,1.4165,1.4166,1.4167,1.417,1.4171,1.4173,1.4153,1.4133,1.4175,1.4143,1.4166,1.4167,1.4175,1.4174,1.4257,1.4181,1.4181,1.4181,1.4181,0,1.4214,1.4236,1.4207,1.422,1.4242,1.4218,1.4241,1.4233,1.4226,1.4236,1.4209,1.4218,1.4193,1.4199,1.4184,1.4201,1.4203,1.4195,1.419,1.4196,1.4196,1.4195,1.419,1.4183,1.4182,1.4182,1.4181,0,1.4288,1.427,1.4291,1.4276,1.4272,1.4289,1.4276,1.4286,1.4274,1.4286,1.4288,1.4268,1.4274,1.4255,1.4258,1.4248,1.4273,1.4264,1.4274,1.427,1.4293,1.429,1.4377,1.4385,1.4306,1.4307,1.4308,0,1.4332,1.4347,1.4333,1.4337,1.4333,1.4341,1.4343,1.432,1.4323,1.4316,1.4327,1.4331,1.4332,1.4343,1.4329,1.4331,1.432,1.435,1.432,1.4324,1.4317,1.4315,1.4315,1.4355,1.4356,1.4357,1.4358,0,1.441,1.4399,1.4403,1.4403,1.4406,1.4406,1.4403,1.4408,1.4383,1.4387,1.4393,1.4394,1.4396,1.4399,1.4398,1.4391,1.437,1.4368,1.4372,1.4377,1.4381,1.4376,1.4288,1.4365,1.4364,1.4364,1.4364,1.4363,1.4468,1.4479,1.447,1.4474,1.447,1.4467,1.4475,1.4463,1.4467,1.4467,1.4453,1.446,1.4452,1.4448,1.4443,1.4448,1.4434,1.4442,1.4443,1.4445,1.4448,1.4383,1.4448,1.4448,1.4448,1.4448,1.4447,0,1.4541,1.4533,1.4538,1.4534,1.4537,1.4517,1.4512,1.4516,1.4523,1.4517,1.4518,1.4523,1.4526,1.4511,1.4511,1.4518,1.4507,1.4518,1.4516,1.4514,1.4462,1.4456,1.4526,1.4526,1.4526,1.4526,1.4526,1.4526,1.458,1.4596,1.4585,1.4598,1.459,1.4596,1.4595,1.4592,1.4587,1.4593,1.4595,1.4585,1.4575,1.4574,1.4575,1.457,1.457,1.4584,1.4576,1.4526,1.4519,1.4511,1.4505,1.4585,1.4585,1.4628,1.4628,1.4628]},{"header":{"parameterUnit":"m.s-1","parameterCategory":1,"la1":30.2991,"la2":30.254,"lo1":-89.0895,"lo2":-89.0444,"dy":0.0017,"dx":0.0017,"nx":28,"ny":28,"refTime":"2023-07-28T03:00:00:Z","depth":0,"parameterNumber":3,"parameterNumberName":"V-component_of_WINDS"},"data":[0,0,0,0,0,0,0,0,0,0,0,0,0,0,0,0,0,0,0,0,0,0,0,0,0,0,0,0,0,0,0,0,0,0,0,0,0,0,0,0,0,0,0,0,0,0,0,0,0,0,0,0,0,0,0,0,0,0,3.2382,3.2382,0,3.2376,3.2376,3.2376,3.2308,3.2306,3.2305,3.2303,3.2297,3.2298,3.23,0,0,0,0,0,0,0,0,0,0,0,0,0,3.2333,3.2335,3.2382,3.2382,3.2382,3.2376,3.2376,3.2376,3.2308,3.2306,3.2304,3.2302,3.2296,3.2298,3.23,0,0,0,0,0,0,0,0,0,0,0,0,0,3.2344,3.2335,3.2382,3.2347,3.2344,3.2376,3.2376,3.2376,3.2309,3.2306,3.2304,3.2301,3.2296,3.2298,3.23,3.2365,0,0,3.2307,3.2308,0,0,0,0,0,0,0,0,3.2343,3.2346,3.2352,3.235,3.2346,3.234,3.2357,3.2372,3.2309,3.2322,3.2303,3.23,3.2313,3.2314,3.2319,3.2365,3.2364,3.2307,3.2308,3.2309,3.231,0,0,0,0,0,0,0,3.2343,3.2345,3.238,3.2353,3.2349,3.2332,3.233,3.2359,3.2332,3.2321,3.2316,3.2316,3.2311,3.2317,3.2318,3.2364,3.2307,3.2309,3.231,3.2311,3.2462,3.2464,0,0,0,0,0,0,3.2347,3.2345,3.238,3.2379,3.2338,3.2335,3.2333,3.2345,3.2332,3.2327,3.2318,3.2313,3.2314,3.2315,3.2317,3.2391,3.2309,3.2311,3.2312,3.2459,3.2462,3.2465,0,0,0,0,0,0,3.2346,3.2351,3.238,3.2361,3.2363,3.2338,3.2352,3.2346,3.2351,3.233,3.2325,3.2329,3.2312,3.2314,3.2353,3.239,3.2312,3.2314,3.2456,3.246,3.2464,3.2539,0,0,0,0,0,0,3.2345,3.2351,3.2375,3.2362,3.2365,3.2416,3.2354,3.2348,3.2355,3.2348,3.2338,3.2334,3.231,3.235,3.2355,3.2391,3.2316,3.2452,3.2458,3.2462,3.2533,3.2545,3.2556,0,0,0,0,0,3.2343,3.2397,3.2377,3.2381,3.2395,3.2419,3.242,3.2391,3.2358,3.2382,3.2369,3.2335,3.2385,3.2355,3.236,3.2397,3.245,3.2456,3.2462,3.2528,3.2543,3.2555,0,0,0,0,0,0,3.2415,3.2395,3.2372,3.2423,3.2423,3.2407,3.2436,3.2408,3.2418,3.2411,3.2375,3.2373,3.2417,3.2411,3.2378,3.2458,3.2412,3.2419,3.246,3.2474,3.2485,3.2484,3.2318,0,0,0,0,0,3.2437,3.2458,3.2439,3.2486,3.2487,3.2462,3.2471,3.2449,3.2448,3.2447,3.2436,3.2436,3.2452,3.2463,3.2476,3.2533,3.2529,3.2561,3.2572,3.2581,3.2587,3.2615,3.2628,3.2485,3.2485,3.2485,0,0,3.2482,3.2473,3.2489,3.25,3.2497,3.2519,3.2462,3.2489,3.2504,3.2451,3.2487,3.2479,3.2476,3.2524,3.2544,3.252,3.2626,3.2589,3.2596,3.2597,3.2623,3.2636,3.2648,3.2489,3.2489,3.2488,0,0,3.2575,3.2571,3.2609,3.2607,3.2604,3.2587,3.2596,3.2585,3.2577,3.2612,3.2573,3.2591,3.262,3.2619,3.2622,3.2715,3.2683,3.272,3.2778,3.2805,3.2816,3.2826,3.2857,3.2869,3.2727,3.2727,3.2727,0,3.2631,3.2662,3.2632,3.266,3.2665,3.2619,3.2656,3.2656,3.2658,3.2662,3.2636,3.2669,3.2665,3.271,3.2733,3.2738,3.2746,3.272,3.2817,3.2827,3.2835,3.2865,3.2877,3.2731,3.2731,3.273,3.273,0,3.2731,3.2753,3.2784,3.2786,3.2795,3.2828,3.2802,3.2815,3.2793,3.2778,3.2814,3.2807,3.2817,3.2827,3.2806,3.287,3.2855,3.2824,3.2775,3.2854,3.2881,3.2892,3.2738,3.2736,3.2735,3.2734,0,0,3.2867,3.2852,3.2863,3.2863,3.2856,3.2872,3.2903,3.2913,3.2924,3.2927,3.2951,3.2976,3.2947,3.2951,3.2929,3.2954,3.3025,3.2919,3.2918,3.2937,3.3093,3.3115,3.3129,3.3005,3.3007,3.3009,3.3093,0,3.2954,3.3005,3.2978,3.3032,3.3052,3.3008,3.3035,3.3033,3.3021,3.3036,3.3022,3.304,3.3001,3.3003,3.3025,3.3012,3.3055,3.3005,3.3025,3.3027,3.3025,3.3143,3.3166,3.3246,3.3103,3.3105,3.3106,0,3.3063,3.307,3.3126,3.3114,3.3121,3.3145,3.3152,3.3167,3.3164,3.3153,3.3158,3.313,3.3159,3.3113,3.3151,3.3118,3.3125,3.312,3.3122,3.3121,3.307,3.3143,3.3271,3.3282,3.3123,3.3122,3.312,0,3.3154,3.3178,3.3213,3.3215,3.3203,3.322,3.3216,3.3211,3.3218,3.3225,3.3229,3.3239,3.3243,3.3251,3.3227,3.3196,3.3268,3.322,3.3259,3.3259,3.3274,3.3273,3.3403,3.3283,3.3282,3.3282,3.3282,0,3.3253,3.3289,3.3254,3.3276,3.3314,3.3283,3.3322,3.3313,3.3309,3.3328,3.3292,3.331,3.3278,3.3293,3.3275,3.3308,3.3311,3.3303,3.3297,3.3305,3.3305,3.3307,3.33,3.3285,3.3285,3.3284,3.3283,0,3.336,3.3339,3.3375,3.336,3.3358,3.3386,3.3373,3.3393,3.3379,3.3403,3.3407,3.3385,3.3401,3.3378,3.3392,3.3379,3.3425,3.3412,3.3426,3.3421,3.346,3.3456,3.3593,3.3609,3.3481,3.3482,3.3483,0,3.3424,3.345,3.3438,3.3448,3.3446,3.3463,3.347,3.3441,3.345,3.3449,3.3468,3.3482,3.349,3.3518,3.3503,3.3513,3.3499,3.3547,3.35,3.3507,3.3497,3.3495,3.3497,3.3555,3.3557,3.3558,3.3559,0,3.3538,3.3526,3.3538,3.3546,3.3555,3.356,3.3563,3.3573,3.3543,3.3555,3.3571,3.3578,3.3592,3.3605,3.3611,3.3607,3.3578,3.3574,3.3583,3.359,3.3596,3.3592,3.3449,3.3571,3.3569,3.3569,3.3568,3.3568,3.3624,3.3644,3.3639,3.3653,3.3652,3.3655,3.3672,3.3659,3.3672,3.3681,3.3663,3.3684,3.368,3.3685,3.3684,3.3699,3.3678,3.3692,3.3695,3.3698,3.3703,3.3596,3.3701,3.37,3.37,3.37,3.3699,0,3.3734,3.3729,3.3742,3.3746,3.3757,3.3729,3.373,3.3741,3.3759,3.3758,3.3768,3.3786,3.3798,3.3784,3.3794,3.3809,3.3796,3.3812,3.381,3.3809,3.3723,3.3713,3.3823,3.3823,3.3823,3.3823,3.3823,3.3823,3.3793,3.3825,3.3813,3.3844,3.3838,3.3857,3.386,3.3862,3.3861,3.3883,3.3893,3.3884,3.3878,3.3887,3.3897,3.3892,3.3897,3.3918,3.3909,3.3828,3.3815,3.3804,3.3794,3.392,3.392,3.3994,3.3994,3.3995]}]]